Flag for Israel Weather past 2 weeks in Haifa, Israel

Now
61 °F

Clear.


Feels Like: 61 °F
Forecast: 58 / 72 °F
Wind: 7 mph from Northeast

Location: Dov Airport

Current Time: Mar 6, 2015 at 1:00:45 AM

Latest Report: Mar 5, 2015 at 10:50 PM


Visibility: 10 mi

Pressure: 30.09 "Hg

Humidity: 59%

Dew point: 46 °F

Location of HaifaLocation

Historic Weather in Haifa — Graph

°F

Haifa temperature yesterday

Maximum temperature yesterday: 66 °F (at 2:50 PM)
Minimum temperature yesterday: 54 °F (at 5:50 AM)
Average temperature yesterday: 62 °F

Past Weeks' High & Low Weather Summary

 TemperatureHumidityPressure
High82 °F (Feb 27, 11:50 AM)88% (Feb 25, 7:50 AM)30.18 "Hg (Feb 25, 7:50 AM)
Low46 °F (Feb 20, 8:50 AM)17% (Feb 27, 11:50 AM)29.65 "Hg (Feb 20, 6:50 AM)
Average61 °F61%30.00 "Hg
* Reported Feb 18 10:50 PM — Mar 5 10:50 PM, Haifa, Weather by CustomWeather, © 2015

Note: Actual official high and low records may vary slightly from our data, if they occured in-between our weather recording intervals... More about our weather records

Advertising

Haifa weather history for previous 24 hours

 ConditionsComfort  
Time TempWeatherWind HumidityBarometerVisibility
10:50 PM
Thu, Mar 5
61 °FClear.7 mph59%30.09 "Hg10 mi
9:50 PM59 °FClear.7 mph68%30.09 "Hg10 mi
8:50 PM59 °FClear.9 mph68%30.09 "Hg10 mi
7:50 PM61 °FClear.9 mph63%30.09 "Hg10 mi
6:50 PM63 °FClear.12 mph64%30.09 "Hg10 mi
5:50 PM63 °FClear.18 mph64%30.07 "Hg10 mi
4:50 PM64 °FSunny.20 mph60%30.07 "Hg10 mi
3:50 PM66 °FSunny.20 mph56%30.07 "Hg10 mi
2:50 PM66 °FSunny.15 mph60%30.07 "Hg10 mi
1:50 PM64 °FSunny.14 mph68%30.07 "Hg10 mi
12:50 PM64 °FSunny.14 mph64%30.09 "Hg10 mi
11:50 AM64 °FPassing clouds.13 mph64%30.09 "HgN/A
10:50 AM64 °FPassing clouds.12 mph68%30.12 "HgN/A
9:50 AM63 °FPassing clouds.7 mph68%30.12 "HgN/A
8:50 AM63 °FPassing clouds.3 mph73%30.12 "HgN/A
7:50 AM59 °FPassing clouds.5 mph82%30.12 "HgN/A
6:50 AM55 °FPassing clouds.6 mph82%30.09 "HgN/A
5:50 AM54 °FPassing clouds.6 mph88%30.09 "HgN/A
Weather by CustomWeather, © 2015

See weather overviewHow to use our weather pages